| time (UTC) | temp C | wind direction | speed KPH | gust KPH | rain 1hr cm | rain 24hr cm | rain mn cm | humidity % | barometer mb |
| 20260903092754 | 30 | 113 | 0.0 | 0.0 | 0.00 | 0.00 | 0.00 | 50 | 1010.0 |
| 20260903092253 | 30 | 248 | 0.0 | 0.0 | 0.00 | 0.00 | 0.00 | 51 | 1010.0 |
| 20260903091755 | 30 | 315 | 0.0 | 0.0 | 0.00 | 0.00 | 0.00 | 50 | 1010.0 |
| 20260903091255 | 30 | 45 | 0.0 | 0.0 | 0.00 | 0.00 | 0.00 | 50 | 1010.0 |
| 20260903091026 | 30 | 270 | 0.0 | 0.0 | 0.00 | 0.00 | 0.00 | 49 | 1010.0 |
| 20260903090255 | 30 | 270 | 0.0 | 0.0 | 0.00 | 0.00 | 0.00 | 50 | 1010.0 |
| 20260903085755 | 30 | 270 | 0.0 | 0.0 | 0.00 | 0.00 | 0.00 | 50 | 1010.0 |
| 20260903085255 | 30 | 270 | 0.0 | 1.6 | 0.00 | 0.00 | 0.00 | 48 | 1010.0 |
| 20260903084754 | 31 | 270 | 0.0 | 1.6 | 0.00 | 0.00 | 0.00 | 49 | 1010.0 |
| 20260903084524 | 31 | 180 | 0.0 | 1.6 | 0.00 | 0.00 | 0.00 | 48 | 1010.5 |
| 20260903084242 | 31 | 180 | 0.0 | 4.8 | 0.00 | 0.00 | 0.00 | 48 | 1010.5 |
| 20260903084228 | 31 | 225 | 0.0 | 3.2 | 0.00 | 0.00 | 0.00 | 48 | 1010.0 |
| 20260903082755 | 31 | 180 | 0.0 | 4.8 | 0.00 | 0.00 | 0.00 | 48 | 1010.5 |
| 20260903082255 | 31 | 203 | 0.0 | 3.2 | 0.00 | 0.00 | 0.00 | 46 | 1010.0 |
| 20260903081755 | 31 | 180 | 0.0 | 3.2 | 0.00 | 0.00 | 0.00 | 46 | 1010.5 |
| 20260903081255 | 31 | 203 | 0.0 | 1.6 | 0.00 | 0.00 | 0.00 | 46 | 1010.0 |
| 20260903081026 | 31 | 203 | 0.0 | 3.2 | 0.00 | 0.00 | 0.00 | 46 | 1010.0 |
| 20260903080254 | 31 | 203 | 0.0 | 3.2 | 0.00 | 0.00 | 0.00 | 46 | 1010.0 |
| 20260903075754 | 31 | 203 | 0.0 | 0.0 | 0.00 | 0.00 | 0.00 | 46 | 1010.0 |
| 20260903075254 | 31 | 203 | 0.0 | 1.6 | 0.00 | 0.00 | 0.00 | 46 | 1010.0 |
| 20260903075026 | 31 | 203 | 0.0 | 3.2 | 0.00 | 0.00 | 0.00 | 45 | 1010.0 |
| 20260903074255 | 31 | 180 | 0.0 | 3.2 | 0.00 | 0.00 | 0.00 | 45 | 1010.0 |
| 20260903073756 | 31 | 180 | 0.0 | 1.6 | 0.00 | 0.00 | 0.00 | 45 | 1010.0 |
| 20260903073526 | 31 | 203 | 0.0 | 3.2 | 0.00 | 0.00 | 0.00 | 45 | 1010.0 |
| 20260903072755 | 32 | 270 | 0.0 | 4.8 | 0.00 | 0.00 | 0.00 | 45 | 1010.0 |
| 20260903072525 | 32 | 248 | 0.0 | 4.8 | 0.00 | 0.00 | 0.00 | 45 | 1010.0 |
| 20260903072025 | 32 | 270 | 0.0 | 1.6 | 0.00 | 0.00 | 0.00 | 45 | 1010.0 |
| 20260903071255 | 32 | 270 | 0.0 | 11.3 | 0.00 | 0.00 | 0.00 | 45 | 1010.5 |
| 20260903070754 | 32 | 270 | 0.0 | 11.3 | 0.00 | 0.00 | 0.00 | 45 | 1010.5 |
| 20260903070253 | 32 | 180 | 0.0 | 6.4 | 0.00 | 0.00 | 0.00 | 45 | 1010.5 |
| 20260903070025 | 32 | 203 | 1.6 | 6.4 | 0.00 | 0.00 | 0.00 | 44 | 1010.5 |
| 20260903065255 | 32 | 203 | 1.6 | 4.8 | 0.00 | 0.00 | 0.00 | 44 | 1010.0 |
| 20260903064755 | 32 | 180 | 1.6 | 6.4 | 0.00 | 0.00 | 0.00 | 44 | 1010.0 |
| 20260903064254 | 32 | 180 | 1.6 | 6.4 | 0.00 | 0.00 | 0.00 | 44 | 1010.0 |
| 20260903063755 | 32 | 225 | 0.0 | 0.0 | 0.00 | 0.00 | 0.00 | 44 | 1009.7 |
| 20260903063255 | 32 | 248 | 0.0 | 0.0 | 0.00 | 0.00 | 0.00 | 44 | 1010.0 |
| 20260903062753 | 32 | 248 | 0.0 | 0.0 | 0.00 | 0.00 | 0.00 | 43 | 1009.7 |
| 20260903062254 | 32 | 248 | 0.0 | 0.0 | 0.00 | 0.00 | 0.00 | 41 | 1009.7 |
| 20260903061753 | 32 | 270 | 0.0 | 0.0 | 0.00 | 0.00 | 0.00 | 44 | 1009.7 |
| 20260903061254 | 32 | 203 | 0.0 | 0.0 | 0.00 | 0.00 | 0.00 | 43 | 1010.0 |
| 20260903060754 | 32 | 203 | 0.0 | 0.0 | 0.00 | 0.00 | 0.00 | 43 | 1010.0 |
| 20260903060255 | 33 | 225 | 0.0 | 0.0 | 0.00 | 0.00 | 0.00 | 43 | 1009.7 |
| 20260903055755 | 33 | 225 | 0.0 | 0.0 | 0.00 | 0.00 | 0.00 | 43 | 1009.7 |
| 20260903055525 | 33 | 203 | 0.0 | 1.6 | 0.00 | 0.00 | 0.00 | 40 | 1009.7 |
| 20260903055025 | 33 | 203 | 0.0 | 1.6 | 0.00 | 0.00 | 0.00 | 40 | 1010.0 |
| 20260903054254 | 33 | 203 | 0.0 | 1.6 | 0.00 | 0.00 | 0.00 | 40 | 1009.7 |
| 20260903053755 | 33 | 225 | 0.0 | 1.6 | 0.00 | 0.00 | 0.00 | 40 | 1010.0 |
| 20260903053254 | 33 | 225 | 0.0 | 1.6 | 0.00 | 0.00 | 0.00 | 39 | 1009.7 |
| 20260903052754 | 33 | 203 | 0.0 | 0.0 | 0.00 | 0.00 | 0.00 | 39 | 1009.7 |
| 20260903052254 | 33 | 203 | 0.0 | 0.0 | 0.00 | 0.00 | 0.00 | 37 | 1010.0 |
| 20260903051755 | 33 | 225 | 0.0 | 1.6 | 0.00 | 0.00 | 0.00 | 37 | 1009.7 |
| 20260903051255 | 33 | 225 | 0.0 | 1.6 | 0.00 | 0.00 | 0.00 | 37 | 1010.0 |
| 20260903050755 | 33 | 225 | 0.0 | 4.8 | 0.00 | 0.00 | 0.00 | 37 | 1010.0 |
| 20260903050255 | 33 | 225 | 0.0 | 4.8 | 0.00 | 0.00 | 0.00 | 37 | 1009.7 |
| 20260903045753 | 34 | 203 | 0.0 | 3.2 | 0.00 | 0.00 | 0.00 | 37 | 1009.7 |
| 20260903045253 | 34 | 203 | 0.0 | 3.2 | 0.00 | 0.00 | 0.00 | 37 | 1009.7 |
| 20260903044754 | 34 | 225 | 0.0 | 4.8 | 0.00 | 0.00 | 0.00 | 37 | 1009.7 |
| 20260903044524 | 34 | 203 | 0.0 | 4.8 | 0.00 | 0.00 | 0.00 | 37 | 1009.3 |
| 20260903043755 | 34 | 225 | 0.0 | 4.8 | 0.00 | 0.00 | 0.00 | 35 | 1009.7 |
| 20260903043255 | 34 | 225 | 0.0 | 3.2 | 0.00 | 0.00 | 0.00 | 35 | 1009.7 |
| 20260903042755 | 34 | 270 | 0.0 | 3.2 | 0.00 | 0.00 | 0.00 | 37 | 1009.7 |
| 20260903042254 | 34 | 270 | 0.0 | 1.6 | 0.00 | 0.00 | 0.00 | 35 | 1009.7 |
| 20260903041755 | 34 | 203 | 0.0 | 1.6 | 0.00 | 0.00 | 0.00 | 37 | 1009.7 |
| 20260903041254 | 34 | 225 | 0.0 | 4.8 | 0.00 | 0.00 | 0.00 | 37 | 1009.7 |
| 20260903040754 | 34 | 248 | 0.0 | 6.4 | 0.00 | 0.00 | 0.00 | 35 | 1009.7 |
| 20260903040524 | 34 | 270 | 0.0 | 6.4 | 0.00 | 0.00 | 0.00 | 35 | 1009.7 |
| 20260903035754 | 34 | 248 | 0.0 | 4.8 | 0.00 | 0.00 | 0.00 | 37 | 1009.7 |
| 20260903035254 | 34 | 293 | 0.0 | 6.4 | 0.00 | 0.00 | 0.00 | 35 | 1009.3 |
| 20260903034754 | 34 | 270 | 0.0 | 6.4 | 0.00 | 0.00 | 0.00 | 35 | 1009.3 |
| 20260903034255 | 35 | 270 | 0.0 | 4.8 | 0.00 | 0.00 | 0.00 | 35 | 1009.3 |
| 20260903033755 | 35 | 270 | 0.0 | 4.8 | 0.00 | 0.00 | 0.00 | 35 | 1009.7 |
| 20260903033254 | 35 | 270 | 0.0 | 4.8 | 0.00 | 0.00 | 0.00 | 35 | 1009.3 |
| 20260903033026 | 35 | 270 | 0.0 | 6.4 | 0.00 | 0.00 | 0.00 | 35 | 1009.0 |
| 20260903032253 | 35 | 270 | 0.0 | 6.4 | 0.00 | 0.00 | 0.00 | 35 | 1009.3 |
| 20260903031753 | 35 | 315 | 0.0 | 8.0 | 0.00 | 0.00 | 0.00 | 35 | 1009.0 |
| 20260903031525 | 35 | 338 | 1.6 | 8.0 | 0.00 | 0.00 | 0.00 | 35 | 1009.0 |
| 20260903031025 | 35 | 0 | 0.0 | 6.4 | 0.00 | 0.00 | 0.00 | 35 | 1008.7 |
| 20260903030255 | 35 | 270 | 1.6 | 6.4 | 0.00 | 0.00 | 0.00 | 35 | 1009.0 |
| 20260903025754 | 35 | 225 | 0.0 | 6.4 | 0.00 | 0.00 | 0.00 | 34 | 1009.0 |
| 20260903025254 | 35 | 293 | 0.0 | 6.4 | 0.00 | 0.00 | 0.00 | 32 | 1009.0 |
| 20260903025026 | 35 | 315 | 0.0 | 6.4 | 0.00 | 0.00 | 0.00 | 32 | 1008.7 |
| 20260903024254 | 35 | 270 | 0.0 | 6.4 | 0.00 | 0.00 | 0.00 | 32 | 1008.7 |
| 20260903023753 | 35 | 248 | 1.6 | 8.0 | 0.00 | 0.00 | 0.00 | 31 | 1008.7 |
| 20260903023253 | 35 | 270 | 1.6 | 8.0 | 0.00 | 0.00 | 0.00 | 31 | 1008.7 |
| 20260903022753 | 36 | 248 | 0.0 | 8.0 | 0.00 | 0.00 | 0.00 | 31 | 1008.3 |
| 20260903022253 | 36 | 203 | 0.0 | 4.8 | 0.00 | 0.00 | 0.00 | 32 | 1008.3 |
| 20260903021754 | 36 | 248 | 0.0 | 3.2 | 0.00 | 0.00 | 0.00 | 32 | 1008.3 |
| 20260903021254 | 36 | 293 | 0.0 | 9.7 | 0.00 | 0.00 | 0.00 | 34 | 1008.3 |
| 20260903020755 | 36 | 270 | 1.6 | 9.7 | 0.00 | 0.00 | 0.00 | 32 | 1008.3 |
| 20260903020254 | 36 | 270 | 1.6 | 8.0 | 0.00 | 0.00 | 0.00 | 32 | 1008.3 |
| 20260903015754 | 36 | 270 | 1.6 | 8.0 | 0.00 | 0.00 | 0.00 | 31 | 1008.3 |
| 20260903015253 | 36 | 180 | 1.6 | 8.0 | 0.00 | 0.00 | 0.00 | 31 | 1008.3 |
| 20260903014758 | 36 | 225 | 0.0 | 8.0 | 0.00 | 0.00 | 0.00 | 31 | 1008.3 |
| 20260903014253 | 36 | 270 | 1.6 | 8.0 | 0.00 | 0.00 | 0.00 | 31 | 1008.0 |
| 20260903013753 | 36 | 270 | 0.0 | 8.0 | 0.00 | 0.00 | 0.00 | 30 | 1008.0 |
| 20260903013253 | 36 | 270 | 1.6 | 9.7 | 0.00 | 0.00 | 0.00 | 30 | 1008.0 |
| 20260903012754 | 37 | 180 | 1.6 | 9.7 | 0.00 | 0.00 | 0.00 | 30 | 1008.0 |
| 20260903012255 | 37 | 248 | 1.6 | 8.0 | 0.00 | 0.00 | 0.00 | 30 | 1008.0 |
| 20260903011754 | 37 | 270 | 1.6 | 8.0 | 0.00 | 0.00 | 0.00 | 30 | 1008.0 |
| 20260903011254 | 37 | 248 | 1.6 | 8.0 | 0.00 | 0.00 | 0.00 | 30 | 1008.0 |
| 20260903010753 | 37 | 203 | 1.6 | 9.7 | 0.00 | 0.00 | 0.00 | 30 | 1008.0 |
| 20260903010253 | 37 | 270 | 1.6 | 9.7 | 0.00 | 0.00 | 0.00 | 30 | 1008.0 |
| 20260903005753 | 37 | 338 | 0.0 | 8.0 | 0.00 | 0.00 | 0.00 | 30 | 1008.0 |
| 20260903005252 | 37 | 270 | 0.0 | 4.8 | 0.00 | 0.00 | 0.00 | 30 | 1008.3 |
| 20260903004752 | 37 | 270 | 1.6 | 8.0 | 0.00 | 0.00 | 0.00 | 29 | 1008.0 |
| 20260903004254 | 37 | 203 | 1.6 | 11.3 | 0.00 | 0.00 | 0.00 | 27 | 1008.0 |
| 20260903003754 | 38 | 225 | 1.6 | 11.3 | 0.00 | 0.00 | 0.00 | 29 | 1008.0 |
| 20260903003253 | 38 | 270 | 1.6 | 6.4 | 0.00 | 0.00 | 0.00 | 29 | 1008.0 |
| 20260903002753 | 38 | 270 | 0.0 | 9.7 | 0.00 | 0.00 | 0.00 | 29 | 1008.0 |
| 20260903002253 | 38 | 338 | 1.6 | 9.7 | 0.00 | 0.00 | 0.00 | 29 | 1008.3 |
| 20260903001752 | 38 | 315 | 1.6 | 11.3 | 0.00 | 0.00 | 0.00 | 29 | 1008.0 |
| 20260903001252 | 38 | 45 | 1.6 | 11.3 | 0.00 | 0.00 | 0.00 | 29 | 1008.0 |
| 20260903000752 | 38 | 0 | 1.6 | 9.7 | 0.00 | 0.00 | 0.00 | 29 | 1008.3 |
| 20260903000252 | 38 | 270 | 1.6 | 9.7 | 0.00 | 0.00 | 0.00 | 29 | 1008.3 |
| 20260902235754 | 38 | 90 | 1.6 | 14.5 | 0.00 | 0.00 | 0.00 | 27 | 1008.3 |
| 20260902235254 | 39 | 270 | 3.2 | 14.5 | 0.00 | 0.00 | 0.00 | 27 | 1008.3 |
| 20260902234753 | 39 | 315 | 1.6 | 9.7 | 0.00 | 0.00 | 0.00 | 29 | 1008.3 |
| 20260902234253 | 40 | 225 | 1.6 | 9.7 | 0.00 | 0.00 | 0.00 | 27 | 1008.3 |
| 20260902233753 | 40 | 315 | 1.6 | 8.0 | 0.00 | 0.00 | 0.00 | 27 | 1008.3 |
| 20260902233259 | 40 | 23 | 1.6 | 9.7 | 0.00 | 0.00 | 0.00 | 27 | 1008.3 |
| 20260902232752 | 40 | 45 | 1.6 | 9.7 | 0.00 | 0.00 | 0.00 | 27 | 1008.3 |
| 20260902232523 | 40 | 338 | 1.6 | 9.7 | 0.00 | 0.00 | 0.00 | 27 | 1008.3 |
| 20260902231751 | 40 | 135 | 1.6 | 8.0 | 0.00 | 0.00 | 0.00 | 25 | 1008.7 |
| 20260902231253 | 40 | 270 | 1.6 | 9.7 | 0.00 | 0.00 | 0.00 | 25 | 1008.7 |
| 20260902230757 | 40 | 270 | 1.6 | 9.7 | 0.00 | 0.00 | 0.00 | 27 | 1008.7 |
| 20260902230253 | 40 | 338 | 1.6 | 9.7 | 0.00 | 0.00 | 0.00 | 27 | 1008.7 |
| 20260902225753 | 40 | 315 | 1.6 | 9.7 | 0.00 | 0.00 | 0.00 | 27 | 1008.7 |
| 20260902225254 | 39 | 180 | 1.6 | 11.3 | 0.00 | 0.00 | 0.00 | 25 | 1009.0 |
| 20260902225022 | 39 | 293 | 1.6 | 11.3 | 0.00 | 0.00 | 0.00 | 27 | 1008.7 |
| 20260902224252 | 39 | 270 | 1.6 | 9.7 | 0.00 | 0.00 | 0.00 | 27 | 1009.0 |
| 20260902223751 | 39 | 180 | 1.6 | 9.7 | 0.00 | 0.00 | 0.00 | 27 | 1009.0 |
| 20260902223252 | 39 | 225 | 1.6 | 9.7 | 0.00 | 0.00 | 0.00 | 25 | 1009.0 |
| 20260902222753 | 39 | 45 | 1.6 | 9.7 | 0.00 | 0.00 | 0.00 | 27 | 1009.3 |
| 20260902222524 | 39 | 248 | 1.6 | 9.7 | 0.00 | 0.00 | 0.00 | 25 | 1009.3 |
| 20260902222024 | 39 | 270 | 1.6 | 12.9 | 0.00 | 0.00 | 0.00 | 27 | 1009.3 |
| 20260902221253 | 39 | 203 | 3.2 | 12.9 | 0.00 | 0.00 | 0.00 | 27 | 1009.3 |
| 20260902220753 | 40 | 225 | 1.6 | 8.0 | 0.00 | 0.00 | 0.00 | 27 | 1009.3 |
| 20260902220522 | 40 | 203 | 1.6 | 8.0 | 0.00 | 0.00 | 0.00 | 27 | 1009.3 |
| 20260902220022 | 39 | 180 | 1.6 | 11.3 | 0.00 | 0.00 | 0.00 | 27 | 1009.7 |
| 20260902215248 | 39 | 180 | 1.6 | 12.9 | 0.00 | 0.00 | 0.00 | 27 | 1009.7 |
| 20260902215005 | 39 | 180 | 3.2 | 12.9 | 0.00 | 0.00 | 0.00 | 27 | 1009.7 |
| 20260902214234 | 39 | 158 | 3.2 | 11.3 | 0.00 | 0.00 | 0.00 | 27 | 1009.7 |
| 20260902213733 | 39 | 180 | 1.6 | 11.3 | 0.00 | 0.00 | 0.00 | 27 | 1009.7 |
| 20260902213234 | 39 | 158 | 1.6 | 11.3 | 0.00 | 0.00 | 0.00 | 27 | 1009.7 |
| 20260902212733 | 38 | 270 | 1.6 | 12.9 | 0.00 | 0.00 | 0.00 | 27 | 1010.0 |
| 20260902212233 | 38 | 180 | 3.2 | 14.5 | 0.00 | 0.00 | 0.00 | 27 | 1010.0 |
| 20260902211732 | 38 | 225 | 1.6 | 14.5 | 0.00 | 0.00 | 0.00 | 30 | 1010.0 |
| 20260902211231 | 38 | 203 | 1.6 | 12.9 | 0.00 | 0.00 | 0.00 | 30 | 1010.0 |
| 20260902211003 | 38 | 180 | 3.2 | 17.7 | 0.00 | 0.00 | 0.00 | 30 | 1010.0 |
| 20260902210232 | 38 | 180 | 3.2 | 17.7 | 0.00 | 0.00 | 0.00 | 29 | 1010.5 |
| 20260902205732 | 37 | 180 | 3.2 | 12.9 | 0.00 | 0.00 | 0.00 | 30 | 1010.5 |
| 20260902205233 | 37 | 113 | 0.0 | 4.8 | 0.00 | 0.00 | 0.00 | 30 | 1010.8 |
| 20260902204733 | 37 | 90 | 0.0 | 11.3 | 0.00 | 0.00 | 0.00 | 30 | 1010.8 |
| 20260902204233 | 37 | 338 | 3.2 | 12.9 | 0.00 | 0.00 | 0.00 | 30 | 1011.1 |
| 20260902203733 | 37 | 180 | 1.6 | 12.9 | 0.00 | 0.00 | 0.00 | 30 | 1011.1 |
| 20260902203231 | 37 | 225 | 3.2 | 11.3 | 0.00 | 0.00 | 0.00 | 30 | 1011.5 |
| 20260902202731 | 37 | 158 | 1.6 | 16.1 | 0.00 | 0.00 | 0.00 | 32 | 1011.1 |
| 20260902202231 | 37 | 203 | 3.2 | 17.7 | 0.00 | 0.00 | 0.00 | 31 | 1011.1 |
| 20260902201731 | 37 | 158 | 3.2 | 17.7 | 0.00 | 0.00 | 0.00 | 31 | 1011.5 |
| 20260902201503 | 37 | 203 | 1.6 | 8.0 | 0.00 | 0.00 | 0.00 | 31 | 1011.5 |
| 20260902200732 | 37 | 158 | 1.6 | 11.3 | 0.00 | 0.00 | 0.00 | 31 | 1011.5 |
| 20260902200503 | 37 | 293 | 1.6 | 14.5 | 0.00 | 0.00 | 0.00 | 30 | 1011.8 |
| 20260902195733 | 37 | 180 | 3.2 | 14.5 | 0.00 | 0.00 | 0.00 | 30 | 1011.8 |
| 20260902195233 | 37 | 270 | 3.2 | 12.9 | 0.00 | 0.00 | 0.00 | 31 | 1012.1 |
| 20260902194736 | 37 | 180 | 1.6 | 11.3 | 0.00 | 0.00 | 0.00 | 32 | 1011.8 |
| 20260902194231 | 36 | 180 | 3.2 | 14.5 | 0.00 | 0.00 | 0.00 | 30 | 1011.8 |
| 20260902193730 | 36 | 180 | 1.6 | 14.5 | 0.00 | 0.00 | 0.00 | 31 | 1012.1 |
| 20260902193230 | 36 | 180 | 3.2 | 12.9 | 0.00 | 0.00 | 0.00 | 31 | 1012.1 |
| 20260902192732 | 36 | 248 | 3.2 | 12.9 | 0.00 | 0.00 | 0.00 | 30 | 1012.1 |
| 20260902192232 | 36 | 180 | 1.6 | 11.3 | 0.00 | 0.00 | 0.00 | 31 | 1012.1 |
| 20260902191731 | 36 | 180 | 1.6 | 11.3 | 0.00 | 0.00 | 0.00 | 32 | 1012.1 |
| 20260902191218 | 36 | 203 | 3.2 | 12.9 | 0.00 | 0.00 | 0.00 | 31 | 1012.1 |
| 20260902190944 | 36 | 225 | 3.2 | 12.9 | 0.00 | 0.00 | 0.00 | 31 | 1012.5 |
| 20260902190931 | 36 | 180 | 3.2 | 12.9 | 0.00 | 0.00 | 0.00 | 31 | 1012.5 |
| 20260902185713 | 36 | 248 | 3.2 | 14.5 | 0.00 | 0.00 | 0.00 | 31 | 1012.5 |
| 20260902185212 | 36 | 225 | 3.2 | 14.5 | 0.00 | 0.00 | 0.00 | 32 | 1012.5 |
| 20260902184711 | 36 | 180 | 1.6 | 14.5 | 0.00 | 0.00 | 0.00 | 34 | 1012.5 |
| 20260902184213 | 36 | 203 | 3.2 | 14.5 | 0.00 | 0.00 | 0.00 | 31 | 1012.8 |
| 20260902183713 | 36 | 248 | 3.2 | 16.1 | 0.00 | 0.00 | 0.00 | 32 | 1012.8 |
| 20260902183212 | 36 | 203 | 3.2 | 16.1 | 0.00 | 0.00 | 0.00 | 32 | 1012.8 |
| 20260902182944 | 36 | 203 | 3.2 | 9.7 | 0.00 | 0.00 | 0.00 | 34 | 1012.8 |
| 20260902182212 | 36 | 23 | 1.6 | 14.5 | 0.00 | 0.00 | 0.00 | 35 | 1013.3 |
| 20260902181712 | 35 | 270 | 3.2 | 14.5 | 0.00 | 0.00 | 0.00 | 35 | 1013.3 |
| 20260902181212 | 35 | 135 | 1.6 | 9.7 | 0.00 | 0.00 | 0.00 | 37 | 1013.3 |
| 20260902180711 | 35 | 180 | 1.6 | 9.7 | 0.00 | 0.00 | 0.00 | 37 | 1013.6 |
| 20260902180211 | 35 | 158 | 3.2 | 16.1 | 0.00 | 0.00 | 0.00 | 37 | 1013.3 |
| 20260902175712 | 35 | 180 | 3.2 | 16.1 | 0.00 | 0.00 | 0.00 | 37 | 1013.3 |
| 20260902175442 | 35 | 180 | 3.2 | 16.1 | 0.00 | 0.00 | 0.00 | 37 | 1013.3 |
| 20260902174712 | 35 | 203 | 1.6 | 16.1 | 0.00 | 0.00 | 0.00 | 37 | 1013.3 |
| 20260902174211 | 35 | 203 | 3.2 | 11.3 | 0.00 | 0.00 | 0.00 | 37 | 1013.3 |
| 20260902173712 | 35 | 203 | 1.6 | 14.5 | 0.00 | 0.00 | 0.00 | 40 | 1013.3 |
| 20260902173210 | 35 | 158 | 3.2 | 14.5 | 0.00 | 0.00 | 0.00 | 40 | 1013.3 |
| 20260902172710 | 35 | 203 | 1.6 | 11.3 | 0.00 | 0.00 | 0.00 | 37 | 1013.3 |
| 20260902172211 | 35 | 203 | 1.6 | 11.3 | 0.00 | 0.00 | 0.00 | 39 | 1013.3 |
| 20260902171710 | 35 | 113 | 3.2 | 9.7 | 0.00 | 0.00 | 0.00 | 39 | 1013.3 |
| 20260902171211 | 35 | 180 | 1.6 | 9.7 | 0.00 | 0.00 | 0.00 | 40 | 1013.6 |
| 20260902170944 | 35 | 180 | 1.6 | 9.7 | 0.00 | 0.00 | 0.00 | 40 | 1013.3 |
| 20260902170211 | 35 | 203 | 1.6 | 9.7 | 0.00 | 0.00 | 0.00 | 37 | 1013.6 |
| 20260902165941 | 35 | 180 | 1.6 | 11.3 | 0.00 | 0.00 | 0.00 | 40 | 1013.6 |
| 20260902165211 | 35 | 158 | 1.6 | 11.3 | 0.00 | 0.00 | 0.00 | 40 | 1013.9 |
| 20260902164710 | 35 | 180 | 1.6 | 11.3 | 0.00 | 0.00 | 0.00 | 41 | 1013.3 |
| 20260902164210 | 35 | 180 | 1.6 | 8.0 | 0.00 | 0.00 | 0.00 | 43 | 1013.6 |
| 20260902163711 | 35 | 203 | 0.0 | 8.0 | 0.00 | 0.00 | 0.00 | 45 | 1013.6 |
| 20260902163210 | 34 | 180 | 1.6 | 8.0 | 0.00 | 0.00 | 0.00 | 45 | 1013.6 |
| 20260902162710 | 34 | 158 | 1.6 | 9.7 | 0.00 | 0.00 | 0.00 | 45 | 1013.6 |
| 20260902162211 | 33 | 180 | 1.6 | 9.7 | 0.00 | 0.00 | 0.00 | 46 | 1013.6 |
| 20260902161710 | 33 | 203 | 1.6 | 9.7 | 0.00 | 0.00 | 0.00 | 49 | 1013.6 |
| 20260902161442 | 33 | 203 | 1.6 | 11.3 | 0.00 | 0.00 | 0.00 | 50 | 1013.6 |
| 20260902160710 | 32 | 158 | 1.6 | 11.3 | 0.00 | 0.00 | 0.00 | 50 | 1013.6 |
| 20260902160210 | 32 | 135 | 1.6 | 9.7 | 0.00 | 0.00 | 0.00 | 50 | 1013.6 |
| 20260902155710 | 32 | 158 | 1.6 | 9.7 | 0.00 | 0.00 | 0.00 | 53 | 1013.3 |
| 20260902155210 | 32 | 203 | 1.6 | 8.0 | 0.00 | 0.00 | 0.00 | 53 | 1013.3 |
| 20260902154942 | 31 | 203 | 1.6 | 6.4 | 0.00 | 0.00 | 0.00 | 54 | 1013.6 |
| 20260902154210 | 31 | 158 | 0.0 | 9.7 | 0.00 | 0.00 | 0.00 | 54 | 1013.6 |
| 20260902153942 | 31 | 203 | 1.6 | 9.7 | 0.00 | 0.00 | 0.00 | 55 | 1013.3 |
| 20260902153210 | 31 | 68 | 1.6 | 6.4 | 0.00 | 0.00 | 0.00 | 55 | 1013.3 |
| 20260902152941 | 31 | 225 | 1.6 | 9.7 | 0.00 | 0.00 | 0.00 | 55 | 1013.3 |
| 20260902152210 | 31 | 180 | 1.6 | 9.7 | 0.00 | 0.00 | 0.00 | 55 | 1013.3 |
| 20260902151709 | 31 | 225 | 1.6 | 9.7 | 0.00 | 0.00 | 0.00 | 55 | 1013.3 |
| 20260902151440 | 30 | 158 | 1.6 | 8.0 | 0.00 | 0.00 | 0.00 | 56 | 1012.8 |
| 20260902150709 | 30 | 180 | 0.0 | 6.4 | 0.00 | 0.00 | 0.00 | 56 | 1013.3 |
| 20260902150440 | 30 | 225 | 0.0 | 6.4 | 0.00 | 0.00 | 0.00 | 59 | 1013.3 |
| 20260902145709 | 30 | 270 | 0.0 | 3.2 | 0.00 | 0.00 | 0.00 | 59 | 1013.3 |
| 20260902145210 | 29 | 180 | 0.0 | 3.2 | 0.00 | 0.00 | 0.00 | 60 | 1013.3 |
| 20260902144711 | 29 | 180 | 0.0 | 3.2 | 0.00 | 0.00 | 0.00 | 60 | 1013.3 |
| 20260902144210 | 29 | 225 | 0.0 | 1.6 | 0.00 | 0.00 | 0.00 | 61 | 1013.3 |
| 20260902143710 | 28 | 158 | 0.0 | 1.6 | 0.00 | 0.00 | 0.00 | 61 | 1012.8 |
| 20260902143201 | 28 | 180 | 0.0 | 4.8 | 0.00 | 0.00 | 0.00 | 61 | 1013.3 |
| 20260902142651 | 28 | 135 | 0.0 | 6.4 | 0.00 | 0.00 | 0.00 | 61 | 1012.8 |
| 20260902142426 | 28 | 180 | 0.0 | 6.4 | 0.00 | 0.00 | 0.00 | 61 | 1012.8 |
| 20260902142151 | 28 | 158 | 0.0 | 6.4 | 0.00 | 0.00 | 0.00 | 61 | 1012.8 |
| 20260902141151 | 28 | 45 | 0.0 | 3.2 | 0.00 | 0.00 | 0.00 | 61 | 1012.8 |
| 20260902140651 | 28 | 203 | 0.0 | 1.6 | 0.00 | 0.00 | 0.00 | 63 | 1012.5 |
| 20260902140151 | 28 | 248 | 0.0 | 3.2 | 0.00 | 0.00 | 0.00 | 63 | 1012.5 |
| 20260902135928 | 28 | 338 | 0.0 | 4.8 | 0.00 | 0.00 | 0.00 | 63 | 1012.5 |
| 20260902135652 | 28 | 135 | 0.0 | 3.2 | 0.00 | 0.00 | 0.00 | 61 | 1012.5 |
| 20260902135151 | 28 | 158 | 0.0 | 1.6 | 0.00 | 0.00 | 0.00 | 61 | 1012.5 |
| 20260902134150 | 28 | 203 | 0.0 | 4.8 | 0.00 | 0.00 | 0.00 | 61 | 1012.5 |
| 20260902133650 | 28 | 270 | 0.0 | 0.0 | 0.00 | 0.00 | 0.00 | 61 | 1012.1 |
| 20260902133149 | 28 | 293 | 0.0 | 0.0 | 0.00 | 0.00 | 0.00 | 61 | 1012.5 |
| 20260902132650 | 28 | 158 | 0.0 | 0.0 | 0.00 | 0.00 | 0.00 | 61 | 1012.5 |
| 20260902132151 | 28 | 293 | 0.0 | 0.0 | 0.00 | 0.00 | 0.00 | 61 | 1012.1 |
| 20260902131651 | 28 | 0 | 0.0 | 0.0 | 0.00 | 0.00 | 0.00 | 61 | 1012.1 |
| 20260902131151 | 28 | 0 | 0.0 | 1.6 | 0.00 | 0.00 | 0.00 | 61 | 1011.8 |
| 20260902130651 | 28 | 203 | 0.0 | 1.6 | 0.00 | 0.00 | 0.00 | 61 | 1012.1 |
| 20260902130156 | 28 | 338 | 0.0 | 1.6 | 0.00 | 0.00 | 0.00 | 61 | 1011.8 |
| 20260902125650 | 28 | 315 | 0.0 | 1.6 | 0.00 | 0.00 | 0.00 | 61 | 1012.1 |
| 20260902125150 | 28 | 225 | 0.0 | 0.0 | 0.00 | 0.00 | 0.00 | 61 | 1011.8 |
| 20260902124921 | 28 | 225 | 0.0 | 0.0 | 0.00 | 0.00 | 0.00 | 61 | 1011.8 |
| 20260902124150 | 28 | 315 | 0.0 | 1.6 | 0.00 | 0.00 | 0.00 | 61 | 1011.8 |
| 20260902123651 | 28 | 225 | 0.0 | 1.6 | 0.00 | 0.00 | 0.00 | 61 | 1011.8 |
| 20260902123152 | 28 | 270 | 0.0 | 1.6 | 0.00 | 0.00 | 0.00 | 61 | 1011.8 |
| 20260902122652 | 28 | 180 | 0.0 | 1.6 | 0.00 | 0.00 | 0.00 | 61 | 1011.5 |
| 20260902122151 | 28 | 45 | 0.0 | 1.6 | 0.00 | 0.00 | 0.00 | 61 | 1011.5 |
| 20260902121651 | 28 | 315 | 0.0 | 1.6 | 0.00 | 0.00 | 0.00 | 61 | 1011.8 |
| 20260902121154 | 28 | 270 | 0.0 | 1.6 | 0.00 | 0.00 | 0.00 | 60 | 1011.5 |
| 20260902121150 | 28 | 225 | 0.0 | 1.6 | 0.00 | 0.00 | 0.00 | 60 | 1011.5 |
| 20260902120907 | 28 | 248 | 0.0 | 0.0 | 0.00 | 0.00 | 0.00 | 60 | 1011.5 |
| 20260902115922 | 28 | 315 | 0.0 | 0.0 | 0.00 | 0.00 | 0.00 | 60 | 1011.8 |
| 20260902115151 | 28 | 225 | 0.0 | 1.6 | 0.00 | 0.00 | 0.00 | 60 | 1011.5 |
| 20260902114651 | 28 | 0 | 0.0 | 3.2 | 0.00 | 0.00 | 0.00 | 60 | 1011.5 |
| 20260902114151 | 28 | 90 | 0.0 | 3.2 | 0.00 | 0.00 | 0.00 | 61 | 1011.8 |
| 20260902113651 | 28 | 23 | 0.0 | 1.6 | 0.00 | 0.00 | 0.00 | 60 | 1011.5 |
| 20260902113152 | 28 | 270 | 0.0 | 1.6 | 0.00 | 0.00 | 0.00 | 60 | 1011.5 |
| 20260902112650 | 28 | 0 | 0.0 | 0.0 | 0.00 | 0.00 | 0.00 | 59 | 1011.5 |
| 20260902112151 | 28 | 225 | 0.0 | 0.0 | 0.00 | 0.00 | 0.00 | 59 | 1011.5 |
| 20260902111650 | 28 | 315 | 0.0 | 0.0 | 0.00 | 0.00 | 0.00 | 59 | 1011.5 |
| 20260902111150 | 28 | 248 | 0.0 | 0.0 | 0.00 | 0.00 | 0.00 | 59 | 1011.5 |
| 20260902110650 | 28 | 248 | 0.0 | 0.0 | 0.00 | 0.00 | 0.00 | 59 | 1011.5 |
| 20260902110151 | 28 | 338 | 0.0 | 1.6 | 0.00 | 0.00 | 0.00 | 59 | 1011.5 |
| 20260902105651 | 28 | 293 | 0.0 | 1.6 | 0.00 | 0.00 | 0.00 | 58 | 1011.5 |
| 20260902105151 | 29 | 270 | 0.0 | 1.6 | 0.00 | 0.00 | 0.00 | 59 | 1011.1 |
| 20260902104922 | 29 | 248 | 0.0 | 1.6 | 0.00 | 0.00 | 0.00 | 59 | 1011.1 |
| 20260902104151 | 29 | 0 | 0.0 | 1.6 | 0.00 | 0.00 | 0.00 | 58 | 1011.5 |
| 20260902103650 | 29 | 23 | 0.0 | 1.6 | 0.00 | 0.00 | 0.00 | 59 | 1011.5 |
| 20260902103150 | 29 | 135 | 0.0 | 0.0 | 0.00 | 0.00 | 0.00 | 60 | 1011.5 |
| 20260902102650 | 29 | 158 | 0.0 | 0.0 | 0.00 | 0.00 | 0.00 | 59 | 1011.5 |
| 20260902102150 | 29 | 158 | 0.0 | 0.0 | 0.00 | 0.00 | 0.00 | 58 | 1011.5 |
| 20260902101923 | 29 | 158 | 0.0 | 0.0 | 0.00 | 0.00 | 0.00 | 56 | 1011.1 |
| 20260902101152 | 29 | 158 | 0.0 | 0.0 | 0.00 | 0.00 | 0.00 | 55 | 1011.5 |
| 20260902100651 | 29 | 113 | 0.0 | 0.0 | 0.00 | 0.00 | 0.00 | 55 | 1011.5 |
| 20260902100151 | 29 | 113 | 0.0 | 0.0 | 0.00 | 0.00 | 0.00 | 54 | 1011.5 |
| 20260902095651 | 29 | 113 | 0.0 | 0.0 | 0.00 | 0.00 | 0.00 | 55 | 1011.5 |
| 20260902095154 | 30 | 113 | 0.0 | 0.0 | 0.00 | 0.00 | 0.00 | 54 | 1011.5 |
| 20260902095150 | 29 | 113 | 0.0 | 0.0 | 0.00 | 0.00 | 0.00 | 55 | 1011.1 |
| 20260902094150 | 30 | 113 | 0.0 | 0.0 | 0.00 | 0.00 | 0.00 | 53 | 1011.5 |
| 20260902093650 | 30 | 113 | 0.0 | 0.0 | 0.00 | 0.00 | 0.00 | 54 | 1011.1 |
| 20260902093151 | 30 | 113 | 0.0 | 0.0 | 0.00 | 0.00 | 0.00 | 55 | 1011.1 |